Grand Island, NE

4:53 PM CDT on August 29, 2016 (GMT -0500)
Central Nebraska Regional

Weather History for KGRI - May, 2014

Change the Weather History Date:

Friday, May 16, 2014

  Actual Average Record
Temperature  
Mean Temperature 44 °F 61 °F  
Max Temperature 51 °F 73 °F 92 °F (1997)
Min Temperature 36 °F 50 °F 32 °F (1916)
Degree Days  
Heating Degree Days 21 5  
Month to date heating degree days 148 118  
Since 1 July heating degree days 6233 6120  
Cooling Degree Days 0 2  
Month to date cooling degree days 6 17  
Year to date cooling degree days 10 28  
Moisture  
Dew Point 33 °F    
Average Humidity 71    
Maximum Humidity 92    
Minimum Humidity 50    
Precipitation  
Precipitation 0.04 in 0.15 in 2.17 in (1992)
Month to date precipitation 0.48 2.14  
Year to date precipitation 4.23 7.68  
Snow  
Snow 0.00 in 0.00 in T in (1991)
Month to date snowfall 0.0 0.1  
Since 1 July snowfall 16.4 29.1  
Snow Depth 0.00 in    
Sea Level Pressure  
Sea Level Pressure 30.13 in    
Wind  
Wind Speed 6 mph (SSE)    
Max Wind Speed 13 mph    
Max Gust Speed 18 mph    
Visibility 10 miles    
Events Rain    
T = Trace of Precipitation, MM = Missing Value Source: NWS Daily Summary

Daily Weather History Graph

Daily Weather History Graph

Search for Another Location

Airport or City:

Trip Planner

Search our weather history database for the weather conditions in past years. The results will help you decide how hot, cold, wet, or windy it might be!

Date:

Astronomy

May. 16, 2014 Rise Set
Actual Time 6:14 AM CDT 8:45 PM CDT
Civil Twilight 5:43 AM CDT 9:16 PM CDT
Nautical Twilight 5:04 AM CDT 9:55 PM CDT
Astronomical Twilight 4:20 AM CDT 10:39 PM CDT
Moon 10:53 PM CDT (5/16) 7:57 AM CDT (5/16)
Length of Visible Light 15h 33m
Length of Day
14h 30m
Waning Gibbous, 95% of the Moon is Illuminated
May 16
Waning Gibbous
May 21
Last Quarter
May 28
New
Jun 5
First Quarter
Jun 12
Full

Hourly Weather History & Observations

Time (CDT) Temp. Windchill Dew Point Humidity Pressure Visibility Wind Dir Wind Speed Gust Speed Precip Events Conditions
12:53 AM 39.2 °F 37.0 °F 26.6 °F 61% 30.17 in 10.0 mi SE 3.5 mph - N/A   Clear
1:53 AM 39.0 °F 36.8 °F 28.0 °F 65% 30.18 in 10.0 mi SE 3.5 mph - N/A   Clear
2:53 AM 37.4 °F 33.8 °F 28.4 °F 70% 30.15 in 10.0 mi SE 4.6 mph - N/A   Clear
3:53 AM 37.0 °F 32.4 °F 28.0 °F 70% 30.15 in 10.0 mi South 5.8 mph - N/A   Clear
4:53 AM 37.0 °F 32.4 °F 28.0 °F 70% 30.15 in 10.0 mi South 5.8 mph - N/A   Clear
5:53 AM 37.9 °F 34.4 °F 30.0 °F 73% 30.14 in 10.0 mi South 4.6 mph - N/A   Partly Cloudy
6:53 AM 39.9 °F 36.7 °F 30.9 °F 70% 30.12 in 10.0 mi South 4.6 mph - N/A   Clear
7:53 AM 44.1 °F 39.5 °F 30.0 °F 58% 30.11 in 10.0 mi South 8.1 mph - N/A   Scattered Clouds
8:53 AM 45.0 °F 41.2 °F 30.0 °F 56% 30.12 in 10.0 mi South 6.9 mph - N/A   Overcast
9:53 AM 46.9 °F - 30.0 °F 52% 30.11 in 10.0 mi South 10.4 mph - N/A   Overcast
10:53 AM 46.9 °F - 30.9 °F 54% 30.09 in 10.0 mi SSE 10.4 mph - N/A   Overcast
11:53 AM 48.9 °F - 32.0 °F 52% 30.12 in 10.0 mi South 8.1 mph - N/A   Overcast
12:53 PM 51.1 °F - 33.1 °F 50% 30.09 in 10.0 mi SSE 6.9 mph - N/A   Overcast
1:53 PM 51.1 °F - 33.1 °F 50% 30.10 in 10.0 mi SSE 4.6 mph - N/A   Overcast
2:31 PM 48.0 °F - 36.0 °F 63% 30.08 in 6.0 mi ENE 11.5 mph - 0.01 in Rain Light Rain
2:53 PM 46.9 °F - 37.9 °F 71% 30.11 in 10.0 mi ESE 8.1 mph - 0.02 in Rain Light Rain
3:53 PM 48.0 °F - 39.0 °F 71% 30.09 in 10.0 mi SE 12.7 mph - 0.00 in   Overcast
4:53 PM 46.9 °F - 37.0 °F 68% 30.12 in 10.0 mi ESE 8.1 mph - N/A   Overcast
5:53 PM 46.0 °F 43.1 °F 39.0 °F 76% 30.14 in 6.0 mi ESE 5.8 mph - 0.01 in Rain Light Rain
6:53 PM 46.0 °F 43.1 °F 39.9 °F 79% 30.14 in 10.0 mi SSE 5.8 mph - 0.01 in   Overcast
7:53 PM 46.9 °F - 39.9 °F 77% 30.14 in 10.0 mi SSE 3.5 mph - N/A   Overcast
8:53 PM 46.0 °F - 39.0 °F 76% 30.16 in 10.0 mi Calm Calm - N/A   Overcast
9:53 PM 42.1 °F - 39.0 °F 89% 30.18 in 10.0 mi Calm Calm - N/A   Clear
10:53 PM 37.9 °F 35.5 °F 36.0 °F 93% 30.19 in 10.0 mi NNW 3.5 mph - N/A   Clear
11:53 PM 37.9 °F 35.5 °F 36.0 °F 93% 30.20 in 6.0 mi West 3.5 mph - N/A   Clear